Location: Runa
(38.1429°N, 80.8510°W)
Time: 13:30:37
(UTC+00:00)

ISS - Pass Details

Date: 23 April 2026
Orbit: 414 x 424 km, 51.6° (Epoch: 12 May)

Event Time Altitude Azimuth Distance (km) Brightness Sun altitude
Exits shadow 08:56:01 25° 314° (NW) 883 -2.3 -18.7°
Maximum altitude 08:56:31 26° 331° (NNW) 857 -2.2 -18.7°
Drops below altitude 10° 08:59:26 10° 30° (NNE) 1,502 0.0 -18.2°
Sets 09:01:45 0° 44° (NE) 2,371 1.6 -17.8°
